www.pogodaiklimat.ru

Погода и климат >> Архив погоды >> Япония >> Кусиро


ПОГОДА в Кусиро

  • Прогноз погоды в Кусиро
  • Монитор погоды в Кусиро

АРХИВ ПОГОДЫ в Кусиро

Время (UTC), дата Ветер
(напр.,м/с)
 
Видим.   Явления Облачность Т
(С)
Тd
(С)
f
(%)
Тe
(С)
Тes
(С)
Комфортность P
(гПа)
Po
(гПа)
Тmin
(С)
Tmax
(С)
R
(мм)
R24
(мм)
S
(см)
10 12.06 СВ 7 н/о н/о +12.3 +7.6 73 +10 +10 1010.1 1005.3
11 12.06 СВ 5 н/о н/о +11.5 +8.0 79 +9 +9 1010.5 1005.7
12 12.06 СВ 5 20 км {ливн. осадки} 10/10
[Cu med, cong]
+11.1 +8.0 81 +8 +8 1010.7 1005.9 +17.5 0.0
13 12.06 СВ 5 н/о н/о +10.7 +7.8 82 +8 +8 1010.2 1005.4
14 12.06 СВ 6 н/о н/о +10.4 +7.5 82 +7 +7 1010.3 1005.5
15 12.06 СВ 5 н/о н/о +10.2 +7.8 85 +7 +7 1009.9 1005.1
16 12.06 С 5 н/о н/о +10.0 +7.9 87 +7 +7 1009.9 1005.1
17 12.06 С 5 н/о н/о +9.9 +8.0 88 +7 +7 1009.9 1005.1
18 12.06 С 5 20 км 10/10
[St]
+9.9 +7.8 87 +7 +7 1010.0 1005.2
19 12.06 С 4 н/о н/о +9.9 +7.8 87 +7 +7 1010.1 1005.3
20 12.06 СВ 4 н/о н/о +9.9 +7.7 86 +7 +7 1010.4 1005.6
21 12.06 СВ 5 15 км 10/10
[Cu med, cong]
+10.3 +7.6 83 +7 +7 1010.7 1005.9
22 12.06 СВ 3 н/о н/о +10.7 +7.4 80 +9 +9 1011.3 1006.5
23 12.06 СВ 2 н/о н/о +11.8 +8.1 78 +11 +11 1011.5 1006.7
00 13.06 СВ 3 30 км 10/10
[Cu med, cong]
+12.8 +8.9 77 +12 +12 1011.5 1006.7 +9.7
01 13.06 ЮЗ 4 н/о н/о +12.9 +8.6 75 +11 +11 1011.7 1006.9
02 13.06 ЮЗ 5 н/о н/о +12.0 +7.9 76 +10 +10 1011.9 1007.1
03 13.06 Ю 5 20 км 10/3
[Cu med, cong Ac As]
+12.0 +8.1 77 +10 +12 1011.8 1007.0
04 13.06 Ю 4 н/о н/о +12.8 +9.1 78 +11 +11 1011.9 1007.1
05 13.06 Ю 4 н/о н/о +12.2 +8.7 79 +10 +10 1011.9 1007.1
06 13.06 Ю 4 15 км 10/4
[Cu med, cong Ac As]
+11.4 +8.4 82 +9 +10 1012.6 1007.8
07 13.06 Ю 4 н/о н/о +10.5 +8.3 86 +8 +8 1012.7 1007.9
08 13.06 Ю 4 н/о н/о +10.3 +8.2 87 +8 +8 1012.8 1008.0
09 13.06 Ю 5 20 км 10/1
[St Ac As]
+9.9 +8.0 88 +7 +7 1013.6 1008.8
10 13.06 ЮВ 4 н/о н/о +9.9 +8.0 88 +7 +7 1014.3 1009.5
11 13.06 Ю 3 н/о н/о +10.0 +8.1 88 +8 +8 1014.8 1010.0
12 13.06 Ю 3 20 км 9/9
[Sc]
+9.9 +8.3 90 +8 +8 1015.3 1010.5 +13.7
13 13.06 ЮВ 4 н/о н/о +9.9 +8.2 89 +7 +7 1015.3 1010.5
14 13.06 Ю 4 н/о н/о +9.7 +8.6 93 +7 +7 1015.6 1010.7
15 13.06 Ю 5 н/о н/о +9.6 +8.8 95 +6 +6 1015.5 1010.6
16 13.06 Ю 5 н/о н/о +9.9 +9.1 95 +7 +7 1015.0 1010.2
17 13.06 Ю 5 н/о н/о +9.8 +9.4 97 +6 +6 1015.1 1010.3
18 13.06 Ю 5 1500 м слаб. морось 10/10
[St]
+9.6 +9.6 100 +6 +6 1015.0 1010.1 0.0
19 13.06 Ю 6 н/о н/о +10.0 +10.0 100 +6 +6 1014.9 1010.1
20 13.06 ЮВ 8 н/о н/о +10.2 +10.2 100 +6 +6 1015.0 1010.2
21 13.06 Ю 7 2000 м дымка {туман} 10/10
[St]
+10.5 +10.2 98 +7 +7 1014.7 1009.9
22 13.06 ЮВ 6 н/о н/о +10.8 +10.2 96 +7 +7 1014.8 1010.0
23 13.06 Ю 6 н/о н/о +11.2 +10.1 93 +8 +8 1014.6 1009.8
00 14.06 Ю 7 10 км {морось, туман} 10/10
[St]
+11.7 +10.3 91 +9 +9 1014.7 1009.9 +9.5 0.0
01 14.06 Ю 4 н/о н/о +12.3 +10.7 90 +10 +10 1014.7 1009.9
02 14.06 Ю 5 н/о н/о +12.7 +10.9 89 +10 +10 1014.6 1009.8
03 14.06 Ю 5 10 км 10/10
[St]
+13.0 +11.2 89 +11 +11 1014.1 1009.3
04 14.06 Ю 4 н/о н/о +12.9 +11.5 91 +11 +11 1013.7 1008.9
05 14.06 Ю 5 н/о н/о +12.8 +11.4 91 +10 +10 1013.6 1008.8
06 14.06 Ю 4 8000 м дымка 10/10
[St]
+12.8 +11.7 93 +11 +11 1013.2 1008.4
07 14.06 ЮЗ 4 н/о н/о +12.8 +12.0 95 +11 +11 1013.3 1008.5
08 14.06 Ю 3 н/о н/о +12.6 +12.1 97 +11 +11 1013.4 1008.6
09 14.06 Ю 4 3000 м дымка 10/10
[St]
+13.2 +12.6 96 +11 +11 1013.5 1008.7
10 14.06 Ю 5 н/о н/о +13.1 +12.6 97 +11 +11 1013.3 1008.5
11 14.06 Ю 4 н/о н/о +12.9 +12.6 98 +11 +11 1014.3 1009.5
12 14.06 Ю 4 1200 м слаб. морось 10/10
[St]
+13.3 +13.3 100 +11 +11 1014.5 1009.7 +13.6 0.0
13 14.06 Ю 4 н/о н/о +12.4 +12.4 100 +10 +10 1014.4 1009.6
14 14.06 Ю 4 н/о н/о +12.4 +12.4 100 +10 +10 1014.8 1010.0
15 14.06 Ю 4 н/о н/о +12.4 +12.4 100 +10 +10 1014.4 1009.6
16 14.06 Ю 5 н/о н/о +12.4 +12.4 100 +10 +10 1013.9 1009.1
17 14.06 Ю 5 н/о н/о +12.3 +12.3 100 +10 +10 1013.8 1009.0
18 14.06 Ю 5 1200 м дымка 10/10
[St]
+12.2 +12.2 100 +10 +10 1013.8 1009.0 0.0
19 14.06 Ю 4 н/о н/о +12.1 +12.1 100 +10 +10 1014.1 1009.3
20 14.06 Ю 7 н/о н/о +12.6 +12.6 100 +10 +10 1014.0 1009.2
21 14.06 Ю 5 3000 м дымка 10/10
[St]
+12.4 +12.3 99 +10 +10 1014.0 1009.2
22 14.06 Ю 8 н/о н/о +12.2 +11.9 98 +9 +9 1013.9 1009.1
23 14.06 ЮВ 9 н/о н/о +12.9 +12.3 96 +10 +10 1014.1 1009.3
00 15.06 Ю 4 3000 м дымка 10/10
[St]
+13.0 +12.2 95 +11 +11 1014.4 1009.6 +12.0 0.0
01 15.06 Ю 8 н/о н/о +13.2 +12.3 94 +10 +10 1014.5 1009.7
02 15.06 ЮВ 8 н/о н/о +13.6 +12.2 91 +11 +11 1014.1 1009.3
03 15.06 Ю 7 8000 м дымка 10/10
[Cu med, cong]
+14.2 +12.8 91 +12 +12 1013.8 1009.0
04 15.06 Ю 6 н/о н/о +13.4 +12.3 93 +11 +11 1013.8 1009.0
05 15.06 Ю 6 н/о н/о +14.2 +12.1 87 +12 +12 1013.7 1008.9
06 15.06 ЮВ 6 10 км 10/4
[Cu med, cong Ac As]
+14.3 +12.9 91 +12 +13 1013.0 1008.2
07 15.06 ЮВ 7 н/о н/о +14.3 +12.7 90 +12 +12 1013.3 1008.5
08 15.06 ЮВ 5 н/о н/о +14.2 +12.6 90 +12 +12 1012.9 1008.1
09 15.06 ЮВ 5 15 км 10/8
[Cu med, cong Ac As]
+13.8 +12.2 90 +12 +12 1012.6 1007.8
10 15.06 ЮВ 6 н/о н/о +13.7 +12.4 92 +11 +11 1012.5 1007.7
11 15.06 В 6 н/о н/о +13.7 +12.8 94 +11 +11 1012.2 1007.4
12 15.06 ЮВ 7 10 км слаб. ливневой дождь 10/10
[Cu med, cong]
+13.4 +12.8 96 +11 +11 1012.1 1007.3 +14.8 0.0
13 15.06 В 7 н/о н/о +13.6 +12.8 95 +11 +11 1010.8 1006.0
14 15.06 В 7 н/о н/о +13.9 +13.0 94 +12 +12 1010.0 1005.3
15 15.06 В 6 н/о н/о +13.7 +13.2 97 +11 +11 1008.7 1004.0
16 15.06 В 6 н/о н/о +13.7 +13.4 98 +11 +11 1007.7 1003.0
17 15.06 В 7 н/о н/о +14.0 +13.5 97 +12 +12 1006.5 1001.8
18 15.06 В 8 6000 м слаб. ливневой дождь 10/10
[Cu med, cong]
+13.2 +12.9 98 +10 +10 1005.5 1000.8 4
19 15.06 СВ 6 н/о н/о +13.5 +13.2 98 +11 +11 1004.3 999.6
20 15.06 В 6 н/о н/о +13.6 +13.3 98 +11 +11 1003.8 999.1
21 15.06 СВ 9 6000 м ливневой дождь 10/10
[Cu med, cong]
+13.8 +13.5 98 +11 +11 1001.1 996.4
22 15.06 СВ 10 н/о н/о +13.9 +13.3 96 +11 +11 1000.0 995.3
23 15.06 В 10 н/о н/о +14.4 +13.3 93 +12 +12 999.1 994.4
00 16.06 С 6 6000 м ливневой дождь, в посл. час гроза 10/10
[Frnb]
+13.4 +13.1 98 +11 +11 997.1 992.4 +13.2 26
01 16.06 СВ 11 н/о н/о +13.5 +13.0 97 +10 +10 995.5 990.8
02 16.06 СВ 10 н/о н/о +13.9 +13.3 96 +11 +11 994.0 989.3
03 16.06 СВ 11 5000 м слаб. ливневой дождь 10/10
[Frnb]
+14.0 +12.7 92 +11 +11 992.1 987.4
04 16.06 СВ 9 н/о н/о +14.5 +11.8 84 +12 +12 991.1 986.5
05 16.06 СВ 14 н/о н/о +13.2 +11.8 91 +9 +9 989.6 984.9
06 16.06 С 12 3000 м ливневой дождь 10/10
[Frnb]
+12.4 +11.9 97 +8 +8 989.2 984.5 7
07 16.06 СВ 11 н/о н/о +12.1 +11.6 97 +8 +8 988.8 984.1
08 16.06 СВ 10 н/о н/о +13.1 +11.8 92 +10 +10 988.0 983.3
09 16.06 СВ 9 15 км слаб. ливневой дождь 10/10
[Cu med, cong]
+12.7 +11.9 95 +9 +9 987.8 983.1
10 16.06 СВ 10 н/о н/о +11.9 +11.6 98 +8 +8 986.9 982.2
11 16.06 СВ 11 н/о н/о +12.1 +11.0 93 +8 +8 986.3 981.6
12 16.06 СВ 13 6000 м ливневой дождь 10/10
[Frnb]
+11.1 +10.3 95 +6 +6 986.2 981.5 +14.6 26
13 16.06 СВ 11 н/о н/о +10.3 +9.9 97 +6 +6 985.6 980.9
14 16.06 С 7 н/о н/о +10.5 +9.9 96 +7 +7 985.9 981.2
15 16.06 С 5 н/о н/о +10.7 +10.0 95 +8 +8 986.2 981.5
16 16.06 З 3 н/о н/о +11.4 +9.7 89 +10 +10 987.0 982.3
17 16.06 СЗ 3 н/о н/о +11.6 +8.6 82 +10 +10 988.1 983.4
18 16.06 З 2 15 км {ливн. осадки} 9/9
[Cu med, cong]
+11.2 +9.5 89 +10 +10 989.1 984.4 11
19 16.06 С 2 н/о н/о +11.6 +8.6 82 +10 +10 990.3 985.6
20 16.06 С 5 н/о н/о +11.5 +6.8 73 +9 +9 991.9 987.2
21 16.06 С 5 30 км 9/9
[Cu med, cong Ac trans]
+12.0 +6.9 71 +10 +10 992.5 987.8
22 16.06 С 9 н/о н/о +12.7 +5.4 61 +10 +10 993.4 988.7
23 16.06 СЗ 5 н/о н/о +13.4 +6.1 61 +12 +12 994.8 990.1
00 17.06 С 8 40 км 8/6
[Cu med, cong Ac trans Ci sp]
+14.2 +5.8 57 +12 +13 995.7 991.0 +10.2 11
01 17.06 С 7 н/о н/о +15.0 +6.3 56 +13 +13 995.9 991.2
02 17.06 С 11 н/о н/о +15.4 +6.2 54 +13 +13 997.1 992.4
03 17.06 С 10 40 км 10/10
[Cu med, cong]
+14.9 +6.2 56 +13 +13 998.1 993.4
04 17.06 С 9 н/о н/о +13.7 +6.3 61 +11 +11 999.2 994.5
05 17.06 С 8 н/о н/о +13.5 +6.8 64 +11 +11 1000.2 995.5
06 17.06 С 8 30 км слаб. ливневой дождь 10/9
[Cu med, cong Ac As]
+12.9 +7.8 71 +10 +10 1001.1 996.4 0.0
07 17.06 С 7 н/о н/о +12.5 +8.2 75 +10 +10 1002.3 997.6
08 17.06 С 6 н/о н/о +12.5 +7.6 72 +10 +10 1003.1 998.4
09 17.06 С 7 30 км {ливн. осадки} 9/3
[Cu med, cong Ac As Ci sp]
+12.7 +7.0 68 +10 +10 1004.0 999.3
10 17.06 С 6 н/о н/о +12.0 +6.9 71 +9 +9 1005.2 1000.4
11 17.06 СВ 3 н/о н/о +11.1 +7.2 77 +9 +9 1006.2 1001.4
12 17.06 СВ 4 20 км {ливн. осадки} 9/4
[Sc diur, vesp Ac trans Ci sp]
+10.5 +7.4 81 +8 +8 1006.9 1002.1 +16.2 0.0
13 17.06 СВ 3 н/о н/о +9.6 +7.4 86 +7 +7 1007.5 1002.7
14 17.06 СВ 2 н/о н/о +9.0 +7.1 88 +7 +7 1008.3 1003.5
15 17.06 Ю 2 н/о н/о +8.5 +6.8 89 +7 +7 1008.6 1003.8
16 17.06 СВ 3 н/о н/о +8.1 +6.7 91 +6 +6 1008.6 1003.8
17 17.06 СВ 2 н/о н/о +6.7 +6.1 96 +5 +5 1009.4 1004.5
18 17.06 СВ 2 10 км 1/1
[Cu med, cong Ac trans Ci fib]
+6.7 +6.3 97 +5 +5 1010.1 1005.2
19 17.06 СЗ 1 н/о н/о +6.2 +5.9 98 +5 +5 1010.9 1006.0
20 17.06 СЗ 1 н/о н/о +6.2 +5.6 96 +6 +6 1011.0 1006.1
21 17.06 ЮЗ 2 6000 м дымка 8/5
[Sc Ac trans Ci fib]
+8.5 +6.8 89 +7 +8 1011.2 1006.3
22 17.06 ЮЗ 3 н/о н/о +10.7 +8.1 84 +9 +9 1011.0 1006.2
23 17.06 ЮЗ 4 н/о н/о +10.9 +7.8 81 +8 +8 1011.1 1006.3
00 18.06 ЮЗ 3 40 км 3/1 50 м
[Cu med, cong Ac trans]
+12.3 +8.0 75 +11 +20 1010.6 1005.8 +6.0
01 18.06 Ю 4 н/о н/о +14.2 +7.7 65 +13 +13 1010.3 1005.6
02 18.06 Ю 6 н/о н/о +13.7 +7.5 66 +12 +12 1010.2 1005.4
03 18.06 Ю 6 40 км 4/1
[Cu med, cong Ac trans Ci sp]
+13.3 +6.7 64 +11 +17 1009.8 1005.0
04 18.06 Ю 7 н/о н/о +14.7 +8.0 64 +13 +13 1009.2 1004.5
05 18.06 ЮВ 6 н/о н/о +14.9 +9.5 70 +13 +13 1008.8 1004.1
06 18.06 Ю 4 40 км 6/1
[Cu med, cong Ac trans Ci sp]
+13.8 +9.1 73 +12 +17 1008.9 1004.2
07 18.06 Ю 7 н/о н/о +14.3 +10.0 75 +12 +12 1008.9 1004.2
08 18.06 Ю 5 н/о н/о +13.4 +10.2 81 +11 +11 1009.0 1004.2
09 18.06 Ю 5 10 км 3/1
[Cu hum Ac trans Ci sp]
+12.4 +9.8 84 +10 +10 1009.2 1004.4
10 18.06 Ю 4 н/о н/о +12.6 +9.6 82 +11 +11 1009.3 1004.5
11 18.06 ЮЗ 5 н/о н/о +12.6 +9.3 80 +10 +10 1009.8 1005.0
12 18.06 З 6 20 км 1/1
[Cu hum Ac trans]
+12.3 +9.3 82 +10 +10 1010.4 1005.6 +15.6
13 18.06 З 4 н/о н/о +11.5 +9.4 87 +9 +9 1010.7 1005.9
14 18.06 ЮЗ 4 н/о н/о +10.8 +9.2 90 +8 +8 1010.6 1005.8
15 18.06 ЮЗ 4 н/о н/о +10.8 +9.4 91 +8 +8 1010.4 1005.6
16 18.06 ЮЗ 5 н/о н/о +10.7 +9.3 91 +8 +8 1010.3 1005.5
17 18.06 ЮЗ 4 н/о н/о +10.6 +9.4 92 +8 +8 1010.2 1005.4
18 18.06 Ю 3 15 км 1/1
[St]
+10.5 +9.6 94 +8 +8 1010.1 1005.3
19 18.06 Ю 2 н/о н/о +10.5 +9.6 94 +9 +9 1010.1 1005.3
20 18.06 Ю 2 н/о н/о +10.9 +9.8 93 +10 +10 1010.1 1005.3
21 18.06 СВ 1 20 км 1/1
[St Ac trans]
+10.5 +8.6 88 +10 +13 1010.1 1005.3
22 18.06 ЮВ 2 н/о н/о +14.2 +11.4 83 +14 +14 1009.9 1005.2
23 18.06 ЮВ 6 н/о н/о +11.3 +11.0 98 +8 +8 1010.2 1005.4
00 19.06 ЮВ 2 1600 м в посл. час туман 3/3
[St Ac trans]
+13.9 +12.1 89 +13 +24 опасность
простуды
1009.9 1005.2 +9.2
01 19.06 Ю 6 н/о н/о +12.5 +10.9 90 +10 +10 1010.2 1005.4
02 19.06 Ю 3 н/о н/о +13.4 +12.3 93 +12 +12 1010.2 1005.4
03 19.06 Ю 3 1600 м в посл. час туман 9/9
[Cu med, cong]
+13.9 +11.1 83 +13 +15 1009.2 1004.5
04 19.06 Ю 3 н/о н/о +15.5 +13.2 86 +15 +15 1008.9 1004.2
05 19.06 Ю 2 н/о н/о +16.2 +13.9 86 +16 +16 1008.4 1003.7
06 19.06 Ю 3 3000 м дымка {туман} 9/9
[Cu med, cong]
+15.2 +13.4 89 +14 +15 1008.3 1003.6
07 19.06 Ю 4 н/о н/о +15.1 +14.3 95 +14 +14 1008.3 1003.6
08 19.06 Ю 3 н/о н/о +15.3 +14.4 94 +15 +15 1008.2 1003.5

 

Местоположение метеостанции Кусиро (Япония): широта 42.98 долгота 144.38 высота над уровнем моря 39 м.

В архиве по умолчанию представлена погода в Кусиро за последнюю неделю. Архивные данные за месяц целиком и за предыдущие месяцы, начиная с января 2011 года, Вы можете получить, выбрав интересующий диапазон дат из раскрывающегося списка и нажав кнопку "Ввод!".


*Определитесь, кто Вы:
робот инопланетянин человек

Внимание! Время в таблицах - всемирное. Для получения местного времени необходимо прибавить поправку, которая равна 9 ч.

Смотрите также архив погоды в соседних городах и на ближайших метеорологических станциях:

Погода в Обихиро (Япония) (95 км)
Погода в Немуро (Япония) (105 км)
Погода в Хироо (Япония) (116 км)
Погода в Абасири (Япония) (116 км)
Погода в Уракава (Япония) (159 км)
Погода в Южно-Курильске (Сахалинская область, Россия) (163 км)
Погода в Момбецу (Япония) (173 км)
Погода в Асахикаве (Япония) (185 км)
Погода в Омурайсу (Япония) (211 км)
Погода в Ивамидзаве (Япония) (213 км)

Пояснения к столбцам:

Ветер - указаны скорость ветра в м/с - средняя за 10 мин, порывы в срок и между сроками (в фигурных скобках) и направление, откуда дует ветер: С - северный, СВ - северо-восточный, В - восточный, ЮВ - юго-восточный, Ю - южный, ЮЗ - юго-западный, З - западный, СЗ - северо-западный.
Видимость - горизонтальная дальность видимости в метрах или километрах. При видимости от 1 до 10 км при отсутствии осадков обычно наблюдается дымка, при ухудшении видимости до 1 км и менее - туман. В сухую погоду видимость может ухудшаться дымом, пылью или мглою.
Явления - указаны атмосферные явления, наблюдавшиеся в срок или в последний час перед сроком; фигурными скобками обозначены явления, наблюдавшиеся между сроками (за 1-3 часа до срока); квадратными скобками обозначены град или гололедные отложения с указанием их диаметра в мм.
Облачность - указаны через наклонную черту общая и нижняя облачность в баллах и высота нижней границы облаков в метрах; квадратными скобками обозначены формы облаков: Ci - перистые, Cs - перисто-слоистые, Cc - перисто-кучевые, Ac - высококучевые, As - высокослоистые, Sc - слоисто-кучевые, Ns - слоисто-дождевые, Cu - кучевые, Cb - кучево-дождевые. Подробнее классификацию облаков см. в Атласе облаков (PDF).
T - Температура воздуха - температура, измеренная на высоте 2 м над землей.
Td - Температура точки росы - температура, при понижении до которой содержащийся в воздухе водяной пар достигнет насыщения.
f - Относительная влажность воздуха - влажноcть воздуха, измеренная на высоте 2 м над землей.
Te - Эффективная температура - температура, которую ощущает одетый по сезону человек в тени. Характеристика душности погоды. При расчете учитывается влияние влажности воздуха и скорости ветра на теплоощущения человека.
Tes - Эффективная температура на солнце - температура, которую ощущает человек, с поправкой на солнечный нагрев. Характеристика знойности погоды. Зависит от высоты солнца над горизонтом, облачности и скорости ветра. Ночью, в пасмурную погоду, а также при ветре 12 м/с и более поправка равна нулю.
P - Атмосферное давление - приведенное к уровню моря атмосферное давление.
Po - Атмосферное давление - измеренное на уровне метеостанции атмосферное давление.
Tmin - Минимальная температура - минимум температуры воздуха на высоте 2 м над землей.
Tmax - Максимальная температура - максимум температуры воздуха на высоте 2 м над землей.
R - Количество осадков - Количество выпавших осадков за период времени, мм. При наведении курсора мыши на число - период времени, за который выпало указанное количество осадков.
R24 - Количество осадков - Количество выпавших осадков за 24 часа, мм.
S - Снежный покров - Высота снежного покрова, см. При наведении курсора мыши на число - состояние снежного покрова и степень покрытия местности в баллах.